| time (UTC) | temp F | wind direction | speed MPH | gust MPH | rain 1hr in | rain 24hr in | rain mn in | humidity % | barometer mb |
| 20260506175102 | 58 | 82 | 4.0 | 7.0 | 0.00 | 0.00 | 0.00 | 77 | 1003.0 |
| 20260506174601 | 58 | 45 | 8.0 | 10.0 | 0.00 | 0.00 | 0.00 | 77 | 1003.0 |
| 20260506174057 | 58 | 65 | 3.0 | 7.0 | 0.00 | 0.00 | 0.00 | 77 | 1003.2 |
| 20260506173555 | 59 | 95 | 4.0 | 8.0 | 0.00 | 0.00 | 0.00 | 76 | 1003.1 |
| 20260506173051 | 59 | 76 | 1.0 | 6.0 | 0.00 | 0.00 | 0.00 | 76 | 1003.0 |
| 20260506172549 | 59 | 98 | 6.0 | 7.0 | 0.00 | 0.00 | 0.00 | 75 | 1003.0 |
| 20260506172045 | 59 | 103 | 3.0 | 9.0 | 0.00 | 0.00 | 0.00 | 75 | 1003.2 |
| 20260506171543 | 59 | 79 | 4.0 | 8.0 | 0.00 | 0.00 | 0.00 | 75 | 1003.0 |
| 20260506171040 | 59 | 76 | 2.0 | 8.0 | 0.00 | 0.00 | 0.00 | 74 | 1003.1 |
| 20260506170537 | 59 | 75 | 5.0 | 6.0 | 0.00 | 0.00 | 0.00 | 74 | 1003.1 |
| 20260506170035 | 59 | 137 | 6.0 | 9.0 | 0.00 | 0.00 | 0.00 | 73 | 1003.0 |
| 20260506165533 | 59 | 101 | 4.0 | 6.0 | 0.00 | 0.00 | 0.00 | 74 | 1003.0 |
| 20260506165029 | 60 | 56 | 4.0 | 11.0 | 0.00 | 0.00 | 0.00 | 73 | 1003.3 |
| 20260506164526 | 60 | 91 | 3.0 | 6.0 | 0.00 | 0.00 | 0.00 | 73 | 1003.4 |
| 20260506164023 | 60 | 44 | 3.0 | 6.0 | 0.00 | 0.00 | 0.00 | 73 | 1003.2 |
| 20260506163519 | 61 | 78 | 7.0 | 8.0 | 0.00 | 0.00 | 0.00 | 72 | 1003.4 |
| 20260506163015 | 61 | 88 | 5.0 | 9.0 | 0.00 | 0.00 | 0.00 | 71 | 1003.3 |
| 20260506162512 | 61 | 57 | 3.0 | 6.0 | 0.00 | 0.00 | 0.00 | 72 | 1003.2 |
| 20260506162009 | 62 | 76 | 4.0 | 10.0 | 0.00 | 0.00 | 0.00 | 70 | 1003.2 |
| 20260506161506 | 62 | 72 | 8.0 | 10.0 | 0.00 | 0.00 | 0.00 | 69 | 1003.4 |
| 20260506161003 | 63 | 95 | 3.0 | 11.0 | 0.00 | 0.00 | 0.00 | 71 | 1003.2 |
| 20260506160501 | 63 | 50 | 5.0 | 7.0 | 0.00 | 0.00 | 0.00 | 70 | 1003.3 |
| 20260506155958 | 64 | 67 | 6.0 | 9.0 | 0.00 | 0.00 | 0.00 | 70 | 1003.3 |
| 20260506155456 | 64 | 84 | 7.0 | 9.0 | 0.00 | 0.00 | 0.00 | 69 | 1003.3 |
| 20260506153622 | 64 | 54 | 4.0 | 10.0 | 0.00 | 0.00 | 0.00 | 71 | 1003.5 |
| 20260506153120 | 63 | 98 | 2.0 | 8.0 | 0.00 | 0.00 | 0.00 | 72 | 1003.7 |
| 20260506152617 | 63 | 70 | 1.0 | 8.0 | 0.00 | 0.00 | 0.00 | 74 | 1003.6 |
| 20260506152114 | 63 | 69 | 4.0 | 6.0 | 0.00 | 0.00 | 0.00 | 75 | 1003.8 |
| 20260506151613 | 63 | 90 | 5.0 | 8.0 | 0.00 | 0.00 | 0.00 | 75 | 1003.9 |
| 20260506151109 | 63 | 59 | 5.0 | 8.0 | 0.00 | 0.00 | 0.00 | 76 | 1003.8 |
| 20260506150606 | 63 | 42 | 3.0 | 7.0 | 0.00 | 0.00 | 0.00 | 76 | 1003.8 |
| 20260506145600 | 64 | 74 | 4.0 | 8.0 | 0.00 | 0.00 | 0.00 | 74 | 1003.9 |
| 20260506145057 | 63 | 106 | 4.0 | 7.0 | 0.00 | 0.00 | 0.00 | 74 | 1004.0 |
| 20260506144554 | 63 | 70 | 2.0 | 10.0 | 0.00 | 0.00 | 0.00 | 75 | 1004.1 |
| 20260506144051 | 63 | 82 | 3.0 | 7.0 | 0.00 | 0.00 | 0.00 | 74 | 1004.5 |
| 20260506143548 | 63 | 54 | 4.0 | 9.0 | 0.00 | 0.00 | 0.00 | 74 | 1004.3 |
| 20260506143047 | 64 | 75 | 1.0 | 4.0 | 0.00 | 0.00 | 0.00 | 74 | 1004.7 |
| 20260506142544 | 64 | 63 | 3.0 | 3.0 | 0.00 | 0.00 | 0.00 | 72 | 1004.7 |
| 20260506142042 | 64 | 98 | 0.0 | 1.0 | 0.00 | 0.00 | 0.00 | 72 | 1005.0 |
| 20260506141539 | 65 | 90 | 0.0 | 4.0 | 0.00 | 0.00 | 0.00 | 71 | 1004.8 |
| 20260506141038 | 66 | 88 | 1.0 | 2.0 | 0.00 | 0.00 | 0.00 | 66 | 1005.1 |
| 20260506140535 | 67 | 112 | 2.0 | 3.0 | 0.00 | 0.00 | 0.00 | 63 | 1005.0 |
| 20260506140032 | 67 | 57 | 0.0 | 0.0 | 0.00 | 0.00 | 0.00 | 62 | 1004.9 |
| 20260506135529 | 67 | 59 | 1.0 | 2.0 | 0.00 | 0.00 | 0.00 | 61 | 1004.6 |
| 20260506135025 | 67 | 67 | 1.0 | 4.0 | 0.00 | 0.00 | 0.00 | 61 | 1004.5 |
| 20260506134521 | 68 | 75 | 3.0 | 6.0 | 0.00 | 0.00 | 0.00 | 59 | 1004.4 |
| 20260506134017 | 68 | 41 | 4.0 | 6.0 | 0.00 | 0.00 | 0.00 | 59 | 1004.5 |
| 20260506133515 | 68 | 108 | 3.0 | 7.0 | 0.00 | 0.00 | 0.00 | 59 | 1004.7 |
| 20260506133012 | 69 | 109 | 1.0 | 3.0 | 0.00 | 0.00 | 0.00 | 59 | 1004.7 |
| 20260506132509 | 69 | 100 | 0.0 | 6.0 | 0.00 | 0.00 | 0.00 | 57 | 1004.9 |
| 20260506132006 | 69 | 95 | 1.0 | 8.0 | 0.00 | 0.00 | 0.00 | 58 | 1004.8 |
| 20260506131503 | 69 | 131 | 6.0 | 8.0 | 0.00 | 0.00 | 0.00 | 57 | 1004.8 |
| 20260506130959 | 68 | 172 | 6.0 | 13.0 | 0.00 | 0.00 | 0.00 | 58 | 1005.0 |
| 20260506130456 | 68 | 107 | 9.0 | 13.0 | 0.00 | 0.00 | 0.00 | 58 | 1005.0 |
| 20260506125954 | 68 | 145 | 3.0 | 6.0 | 0.00 | 0.00 | 0.00 | 59 | 1004.9 |
| 20260506125452 | 67 | 148 | 9.0 | 11.0 | 0.00 | 0.00 | 0.00 | 59 | 1005.3 |
| 20260506124949 | 67 | 100 | 9.0 | 13.0 | 0.00 | 0.00 | 0.00 | 59 | 1005.3 |
| 20260506124447 | 67 | 111 | 5.0 | 14.0 | 0.00 | 0.00 | 0.00 | 59 | 1005.3 |
| 20260506123945 | 67 | 116 | 5.0 | 9.0 | 0.00 | 0.00 | 0.00 | 59 | 1005.4 |
| 20260506123443 | 67 | 66 | 5.0 | 7.0 | 0.00 | 0.00 | 0.00 | 59 | 1005.5 |
| 20260506122940 | 68 | 157 | 6.0 | 9.0 | 0.00 | 0.00 | 0.00 | 57 | 1005.6 |
| 20260506122437 | 67 | 101 | 6.0 | 8.0 | 0.00 | 0.00 | 0.00 | 58 | 1005.6 |
| 20260506121935 | 67 | 83 | 1.0 | 7.0 | 0.00 | 0.00 | 0.00 | 58 | 1005.7 |
| 20260506121432 | 67 | 77 | 9.0 | 14.0 | 0.00 | 0.00 | 0.00 | 57 | 1005.8 |
| 20260506120929 | 67 | 114 | 5.0 | 7.0 | 0.00 | 0.00 | 0.00 | 56 | 1005.8 |
| 20260506120426 | 68 | 113 | 1.0 | 10.0 | 0.00 | 0.00 | 0.00 | 57 | 1005.9 |
| 20260506115923 | 67 | 55 | 3.0 | 6.0 | 0.00 | 0.00 | 0.00 | 56 | 1005.9 |
| 20260506115421 | 67 | 136 | 6.0 | 9.0 | 0.00 | 0.00 | 0.00 | 57 | 1005.9 |
| 20260506114919 | 68 | 144 | 5.0 | 9.0 | 0.00 | 0.00 | 0.00 | 55 | 1006.0 |
| 20260506114416 | 68 | 91 | 0.0 | 4.0 | 0.00 | 0.00 | 0.00 | 56 | 1006.0 |
| 20260506113915 | 68 | 221 | 2.0 | 14.0 | 0.00 | 0.00 | 0.00 | 55 | 1005.7 |
| 20260506113412 | 67 | 115 | 3.0 | 9.0 | 0.00 | 0.00 | 0.00 | 57 | 1005.8 |
| 20260506112909 | 67 | 92 | 15.0 | 17.0 | 0.00 | 0.00 | 0.00 | 55 | 1005.9 |
| 20260506112407 | 66 | 49 | 2.0 | 9.0 | 0.00 | 0.00 | 0.00 | 57 | 1006.1 |
| 20260506111904 | 66 | 77 | 4.0 | 13.0 | 0.00 | 0.00 | 0.00 | 58 | 1006.1 |
| 20260506111402 | 66 | 84 | 1.0 | 9.0 | 0.00 | 0.00 | 0.00 | 56 | 1006.2 |
| 20260506110858 | 66 | 94 | 2.0 | 7.0 | 0.00 | 0.00 | 0.00 | 57 | 1006.5 |
| 20260506110356 | 66 | 111 | 6.0 | 10.0 | 0.00 | 0.00 | 0.00 | 57 | 1006.3 |
| 20260506105852 | 66 | 86 | 1.0 | 13.0 | 0.00 | 0.00 | 0.00 | 57 | 1006.5 |
| 20260506105349 | 65 | 116 | 2.0 | 7.0 | 0.00 | 0.00 | 0.00 | 57 | 1006.5 |
| 20260506104847 | 65 | 113 | 6.0 | 14.0 | 0.00 | 0.00 | 0.00 | 58 | 1006.4 |
| 20260506104344 | 65 | 146 | 4.0 | 9.0 | 0.00 | 0.00 | 0.00 | 57 | 1006.4 |
| 20260506103842 | 64 | 88 | 6.0 | 8.0 | 0.00 | 0.00 | 0.00 | 57 | 1006.5 |
| 20260506103339 | 64 | 75 | 6.0 | 13.0 | 0.00 | 0.00 | 0.00 | 58 | 1006.4 |
| 20260506102836 | 64 | 92 | 3.0 | 6.0 | 0.00 | 0.00 | 0.00 | 57 | 1006.8 |
| 20260506102334 | 64 | 75 | 6.0 | 8.0 | 0.00 | 0.00 | 0.00 | 58 | 1006.6 |
| 20260506101831 | 64 | 96 | 11.0 | 16.0 | 0.00 | 0.00 | 0.00 | 58 | 1006.6 |
| 20260506101327 | 63 | 46 | 7.0 | 9.0 | 0.00 | 0.00 | 0.00 | 57 | 1006.9 |
| 20260506100825 | 63 | 106 | 5.0 | 9.0 | 0.00 | 0.00 | 0.00 | 58 | 1006.8 |
| 20260506100323 | 64 | 104 | 7.0 | 14.0 | 0.00 | 0.00 | 0.00 | 57 | 1006.8 |
| 20260506095821 | 63 | 41 | 3.0 | 4.0 | 0.00 | 0.00 | 0.00 | 58 | 1006.8 |
| 20260506095318 | 62 | 90 | 2.0 | 7.0 | 0.00 | 0.00 | 0.00 | 59 | 1006.9 |
| 20260506094815 | 62 | 72 | 6.0 | 9.0 | 0.00 | 0.00 | 0.00 | 59 | 1006.9 |
| 20260506094314 | 62 | 71 | 1.0 | 7.0 | 0.00 | 0.00 | 0.00 | 60 | 1006.8 |
| 20260506093811 | 62 | 116 | 8.0 | 11.0 | 0.00 | 0.00 | 0.00 | 59 | 1006.7 |
| 20260506093308 | 62 | 73 | 10.0 | 13.0 | 0.00 | 0.00 | 0.00 | 59 | 1007.0 |
| 20260506092806 | 62 | 146 | 8.0 | 11.0 | 0.00 | 0.00 | 0.00 | 59 | 1007.2 |
| 20260506092306 | 62 | 113 | 6.0 | 10.0 | 0.00 | 0.00 | 0.00 | 59 | 1006.9 |
| 20260506091801 | 61 | 125 | 11.0 | 17.0 | 0.00 | 0.00 | 0.00 | 60 | 1006.6 |
| 20260506091258 | 62 | 41 | 4.0 | 19.0 | 0.00 | 0.00 | 0.00 | 61 | 1006.7 |
| 20260506090756 | 61 | 138 | 8.0 | 10.0 | 0.00 | 0.00 | 0.00 | 60 | 1006.7 |
| 20260506090253 | 60 | 34 | 10.0 | 14.0 | 0.00 | 0.00 | 0.00 | 61 | 1006.6 |
| 20260506085749 | 60 | 31 | 3.0 | 13.0 | 0.00 | 0.00 | 0.00 | 62 | 1006.8 |
| 20260506085246 | 61 | 59 | 13.0 | 18.0 | 0.00 | 0.00 | 0.00 | 61 | 1006.6 |
| 20260506084742 | 60 | 28 | 11.0 | 14.0 | 0.00 | 0.00 | 0.00 | 63 | 1006.5 |
| 20260506084238 | 60 | 78 | 5.0 | 11.0 | 0.00 | 0.00 | 0.00 | 62 | 1006.8 |
| 20260506083736 | 59 | 60 | 2.0 | 8.0 | 0.00 | 0.00 | 0.00 | 64 | 1006.6 |
| 20260506083233 | 59 | 48 | 7.0 | 13.0 | 0.00 | 0.00 | 0.00 | 62 | 1006.8 |
| 20260506082731 | 60 | 40 | 9.0 | 14.0 | 0.00 | 0.00 | 0.00 | 63 | 1007.1 |
| 20260506082226 | 59 | 35 | 8.0 | 14.0 | 0.00 | 0.00 | 0.00 | 64 | 1007.1 |
| 20260506081724 | 60 | 98 | 6.0 | 15.0 | 0.00 | 0.00 | 0.00 | 63 | 1006.9 |
| 20260506081221 | 59 | 93 | 5.0 | 8.0 | 0.00 | 0.00 | 0.00 | 64 | 1007.1 |
| 20260506080719 | 59 | 39 | 2.0 | 8.0 | 0.00 | 0.00 | 0.00 | 65 | 1007.1 |
| 20260506080215 | 59 | 91 | 3.0 | 6.0 | 0.00 | 0.00 | 0.00 | 66 | 1007.1 |
| 20260506073159 | 57 | 94 | 4.0 | 11.0 | 0.00 | 0.00 | 0.00 | 69 | 1007.3 |
| 20260506072656 | 57 | 70 | 5.0 | 15.0 | 0.00 | 0.00 | 0.00 | 70 | 1007.3 |
| 20260506072154 | 56 | 27 | 12.0 | 16.0 | 0.00 | 0.00 | 0.00 | 71 | 1007.5 |
| 20260506071651 | 56 | 47 | 9.0 | 10.0 | 0.00 | 0.00 | 0.00 | 71 | 1007.5 |
| 20260506071148 | 56 | 38 | 6.0 | 15.0 | 0.00 | 0.00 | 0.00 | 72 | 1007.4 |
| 20260506070645 | 56 | 44 | 3.0 | 8.0 | 0.00 | 0.00 | 0.00 | 72 | 1007.3 |
| 20260506070142 | 55 | 52 | 5.0 | 11.0 | 0.00 | 0.00 | 0.00 | 72 | 1007.5 |
| 20260506062120 | 54 | 43 | 5.0 | 10.0 | 0.00 | 0.00 | 0.00 | 76 | 1007.7 |
| 20260506061615 | 54 | 43 | 8.0 | 13.0 | 0.00 | 0.00 | 0.00 | 78 | 1007.4 |
| 20260506061113 | 54 | 99 | 1.0 | 7.0 | 0.00 | 0.00 | 0.00 | 77 | 1007.6 |
| 20260506060612 | 53 | 37 | 10.0 | 14.0 | 0.00 | 0.00 | 0.00 | 78 | 1007.6 |
| 20260506060108 | 53 | 37 | 8.0 | 10.0 | 0.00 | 0.00 | 0.00 | 78 | 1007.6 |
| 20260506051040 | 51 | 39 | 8.0 | 9.0 | 0.00 | 0.00 | 0.00 | 81 | 1008.0 |
| 20260506050538 | 51 | 48 | 4.0 | 7.0 | 0.00 | 0.00 | 0.00 | 81 | 1008.1 |
| 20260506045029 | 51 | 51 | 6.0 | 9.0 | 0.00 | 0.00 | 0.00 | 81 | 1007.9 |
| 20260506044526 | 51 | 42 | 3.0 | 13.0 | 0.00 | 0.00 | 0.00 | 82 | 1007.9 |
| 20260506044023 | 51 | 28 | 11.0 | 14.0 | 0.00 | 0.00 | 0.00 | 81 | 1007.8 |
| 20260506043520 | 51 | 77 | 6.0 | 17.0 | 0.00 | 0.00 | 0.00 | 82 | 1007.9 |
| 20260506043019 | 51 | 32 | 9.0 | 14.0 | 0.00 | 0.00 | 0.00 | 82 | 1007.9 |
| 20260506042517 | 51 | 33 | 8.0 | 9.0 | 0.00 | 0.00 | 0.00 | 82 | 1008.0 |
| 20260506042015 | 51 | 32 | 8.0 | 10.0 | 0.00 | 0.00 | 0.00 | 81 | 1008.0 |
| 20260506041513 | 51 | 31 | 9.0 | 10.0 | 0.00 | 0.00 | 0.00 | 81 | 1007.9 |
| 20260506041010 | 50 | 54 | 4.0 | 6.0 | 0.00 | 0.00 | 0.00 | 82 | 1007.9 |
| 20260506040508 | 50 | 40 | 2.0 | 7.0 | 0.00 | 0.00 | 0.00 | 83 | 1008.1 |
| 20260506040003 | 50 | 44 | 1.0 | 7.0 | 0.00 | 0.00 | 0.00 | 84 | 1008.0 |
| 20260506035500 | 50 | 43 | 3.0 | 7.0 | 0.00 | 0.00 | 0.00 | 83 | 1008.2 |
| 20260506034957 | 50 | 47 | 3.0 | 7.0 | 0.00 | 0.00 | 0.00 | 83 | 1008.2 |
| 20260506034455 | 49 | 36 | 6.0 | 9.0 | 0.00 | 0.00 | 0.00 | 84 | 1008.0 |
| 20260506033951 | 49 | 45 | 6.0 | 10.0 | 0.00 | 0.00 | 0.00 | 84 | 1008.0 |
| 20260506033449 | 49 | 46 | 2.0 | 8.0 | 0.00 | 0.00 | 0.00 | 85 | 1008.0 |
| 20260506032945 | 49 | 41 | 4.0 | 8.0 | 0.00 | 0.00 | 0.00 | 85 | 1008.2 |
| 20260506032443 | 49 | 44 | 2.0 | 9.0 | 0.00 | 0.00 | 0.00 | 84 | 1008.1 |
| 20260506031939 | 49 | 36 | 6.0 | 8.0 | 0.00 | 0.00 | 0.00 | 84 | 1008.1 |
| 20260506031436 | 49 | 37 | 5.0 | 9.0 | 0.00 | 0.00 | 0.00 | 85 | 1007.9 |
| 20260506030934 | 49 | 28 | 7.0 | 11.0 | 0.00 | 0.00 | 0.00 | 85 | 1007.9 |
| 20260506030432 | 49 | 43 | 4.0 | 6.0 | 0.00 | 0.00 | 0.00 | 85 | 1007.9 |
| 20260506025928 | 49 | 31 | 8.0 | 9.0 | 0.00 | 0.00 | 0.00 | 85 | 1008.1 |
| 20260506025425 | 49 | 40 | 5.0 | 10.0 | 0.00 | 0.00 | 0.00 | 86 | 1007.7 |
| 20260506024922 | 49 | 29 | 6.0 | 9.0 | 0.00 | 0.00 | 0.00 | 86 | 1007.9 |
| 20260506024419 | 49 | 33 | 6.0 | 10.0 | 0.00 | 0.00 | 0.00 | 86 | 1007.9 |
| 20260506023915 | 49 | 29 | 8.0 | 9.0 | 0.00 | 0.00 | 0.00 | 86 | 1007.8 |
| 20260506023412 | 49 | 31 | 8.0 | 8.0 | 0.00 | 0.00 | 0.00 | 86 | 1007.9 |
| 20260506022908 | 49 | 29 | 6.0 | 8.0 | 0.00 | 0.00 | 0.00 | 86 | 1007.8 |
| 20260506022407 | 49 | 27 | 6.0 | 9.0 | 0.00 | 0.00 | 0.00 | 85 | 1007.6 |
| 20260506021904 | 49 | 29 | 8.0 | 9.0 | 0.00 | 0.00 | 0.00 | 85 | 1007.8 |
| 20260506021401 | 49 | 39 | 3.0 | 9.0 | 0.00 | 0.00 | 0.00 | 85 | 1007.5 |
| 20260506020858 | 49 | 62 | 2.0 | 3.0 | 0.00 | 0.00 | 0.00 | 85 | 1007.7 |
| 20260506020356 | 49 | 42 | 3.0 | 7.0 | 0.00 | 0.00 | 0.00 | 85 | 1007.7 |
| 20260506015853 | 50 | 43 | 5.0 | 10.0 | 0.00 | 0.00 | 0.00 | 84 | 1007.4 |
| 20260506015350 | 50 | 36 | 4.0 | 9.0 | 0.00 | 0.00 | 0.00 | 85 | 1007.5 |
| 20260506014847 | 50 | 33 | 5.0 | 7.0 | 0.00 | 0.00 | 0.00 | 85 | 1007.5 |
| 20260506014344 | 50 | 42 | 6.0 | 9.0 | 0.00 | 0.00 | 0.00 | 85 | 1007.6 |
| 20260506013840 | 50 | 29 | 9.0 | 13.0 | 0.00 | 0.00 | 0.00 | 85 | 1007.5 |
| 20260506013338 | 50 | 27 | 9.0 | 11.0 | 0.00 | 0.00 | 0.00 | 85 | 1007.7 |
| 20260506012834 | 50 | 40 | 8.0 | 13.0 | 0.00 | 0.00 | 0.00 | 85 | 1007.6 |
| 20260506012332 | 50 | 24 | 7.0 | 11.0 | 0.00 | 0.00 | 0.00 | 85 | 1007.5 |
| 20260506011829 | 50 | 20 | 8.0 | 11.0 | 0.00 | 0.00 | 0.00 | 84 | 1007.5 |
| 20260506011325 | 51 | 9 | 12.0 | 14.0 | 0.00 | 0.00 | 0.00 | 83 | 1007.6 |
| 20260506010823 | 51 | 7 | 9.0 | 13.0 | 0.00 | 0.00 | 0.00 | 83 | 1007.6 |
| 20260506010320 | 51 | 356 | 7.0 | 10.0 | 0.00 | 0.00 | 0.00 | 83 | 1007.5 |
| 20260506005817 | 51 | 17 | 8.0 | 11.0 | 0.00 | 0.00 | 0.00 | 83 | 1007.6 |
| 20260506005314 | 51 | 3 | 6.0 | 10.0 | 0.00 | 0.00 | 0.00 | 82 | 1007.3 |
| 20260506004810 | 51 | 5 | 9.0 | 10.0 | 0.00 | 0.00 | 0.00 | 82 | 1007.5 |
| 20260506004308 | 51 | 355 | 6.0 | 9.0 | 0.00 | 0.00 | 0.00 | 82 | 1007.6 |
| 20260506003803 | 51 | 16 | 5.0 | 6.0 | 0.00 | 0.00 | 0.00 | 82 | 1007.3 |
| 20260506003300 | 51 | 12 | 4.0 | 6.0 | 0.00 | 0.00 | 0.00 | 82 | 1007.4 |
| 20260506002756 | 51 | 359 | 5.0 | 7.0 | 0.00 | 0.00 | 0.00 | 81 | 1007.4 |
| 20260506002253 | 51 | 6 | 5.0 | 6.0 | 0.00 | 0.00 | 0.00 | 81 | 1007.3 |
| 20260506001748 | 51 | 23 | 6.0 | 7.0 | 0.00 | 0.00 | 0.00 | 81 | 1007.0 |
| 20260506001246 | 52 | 28 | 6.0 | 7.0 | 0.00 | 0.00 | 0.00 | 81 | 1006.9 |
| 20260506000743 | 51 | 53 | 1.0 | 3.0 | 0.00 | 0.00 | 0.00 | 81 | 1006.9 |
| 20260506000240 | 52 | 38 | 2.0 | 6.0 | 0.00 | 0.00 | 0.00 | 81 | 1007.2 |
| 20260505235737 | 52 | 16 | 4.0 | 4.0 | 0.00 | 0.00 | 0.00 | 81 | 1007.4 |
| 20260505235235 | 52 | 22 | 5.0 | 6.0 | 0.00 | 0.00 | 0.00 | 80 | 1007.2 |
| 20260505234732 | 52 | 14 | 6.0 | 7.0 | 0.00 | 0.00 | 0.00 | 80 | 1007.3 |
| 20260505234229 | 52 | 7 | 4.0 | 4.0 | 0.00 | 0.00 | 0.00 | 80 | 1007.5 |
| 20260505233726 | 52 | 12 | 5.0 | 7.0 | 0.00 | 0.00 | 0.00 | 79 | 1007.3 |
| 20260505233224 | 52 | 32 | 5.0 | 9.0 | 0.00 | 0.00 | 0.00 | 79 | 1007.2 |
| 20260505232720 | 52 | 39 | 4.0 | 7.0 | 0.00 | 0.00 | 0.00 | 80 | 1007.1 |
| 20260505232218 | 52 | 54 | 2.0 | 6.0 | 0.00 | 0.00 | 0.00 | 82 | 1007.2 |
| 20260505231715 | 53 | 23 | 7.0 | 8.0 | 0.00 | 0.00 | 0.00 | 80 | 1007.6 |
| 20260505231214 | 53 | 359 | 5.0 | 7.0 | 0.00 | 0.00 | 0.00 | 80 | 1007.7 |
| 20260505230711 | 53 | 345 | 5.0 | 8.0 | 0.00 | 0.00 | 0.00 | 80 | 1007.5 |
| 20260505230208 | 53 | 356 | 5.0 | 6.0 | 0.00 | 0.00 | 0.00 | 80 | 1007.5 |
| 20260505225704 | 53 | 8 | 4.0 | 4.0 | 0.00 | 0.00 | 0.00 | 79 | 1007.2 |
| 20260505225201 | 53 | 351 | 4.0 | 6.0 | 0.00 | 0.00 | 0.00 | 80 | 1007.4 |
| 20260505224656 | 53 | 3 | 4.0 | 4.0 | 0.00 | 0.00 | 0.00 | 80 | 1007.3 |
| 20260505224154 | 53 | 18 | 4.0 | 6.0 | 0.00 | 0.00 | 0.00 | 80 | 1007.2 |
| 20260505223652 | 53 | 17 | 4.0 | 4.0 | 0.00 | 0.00 | 0.00 | 81 | 1007.0 |
| 20260505223147 | 53 | 4 | 5.0 | 6.0 | 0.00 | 0.00 | 0.00 | 81 | 1007.0 |
| 20260505222643 | 53 | 18 | 4.0 | 6.0 | 0.00 | 0.00 | 0.00 | 80 | 1007.1 |
| 20260505222140 | 53 | 18 | 4.0 | 7.0 | 0.00 | 0.00 | 0.00 | 81 | 1006.9 |
| 20260505221638 | 53 | 35 | 6.0 | 7.0 | 0.00 | 0.00 | 0.00 | 81 | 1006.9 |
| 20260505221134 | 53 | 22 | 6.0 | 7.0 | 0.00 | 0.00 | 0.00 | 80 | 1007.0 |
| 20260505220632 | 53 | 12 | 6.0 | 9.0 | 0.00 | 0.00 | 0.00 | 80 | 1007.2 |
| 20260505220129 | 54 | 10 | 7.0 | 7.0 | 0.00 | 0.00 | 0.00 | 80 | 1007.2 |
| 20260505215626 | 54 | 0 | 6.0 | 7.0 | 0.00 | 0.00 | 0.00 | 80 | 1007.2 |
| 20260505215125 | 53 | 352 | 6.0 | 7.0 | 0.00 | 0.00 | 0.00 | 81 | 1007.1 |
| 20260505214622 | 54 | 4 | 6.0 | 8.0 | 0.00 | 0.00 | 0.00 | 81 | 1006.9 |
| 20260505214119 | 54 | 9 | 6.0 | 8.0 | 0.00 | 0.00 | 0.00 | 81 | 1007.0 |
| 20260505213617 | 54 | 13 | 6.0 | 8.0 | 0.00 | 0.00 | 0.00 | 81 | 1007.1 |
| 20260505213113 | 54 | 20 | 9.0 | 9.0 | 0.00 | 0.00 | 0.00 | 81 | 1006.8 |
| 20260505212609 | 54 | 3 | 6.0 | 7.0 | 0.00 | 0.00 | 0.00 | 82 | 1007.2 |
| 20260505212107 | 54 | 21 | 7.0 | 9.0 | 0.00 | 0.00 | 0.00 | 81 | 1006.7 |
| 20260505211604 | 54 | 15 | 6.0 | 8.0 | 0.00 | 0.00 | 0.00 | 81 | 1007.0 |
| 20260505211101 | 55 | 13 | 7.0 | 9.0 | 0.00 | 0.00 | 0.00 | 81 | 1007.2 |
| 20260505210557 | 55 | 3 | 8.0 | 10.0 | 0.00 | 0.00 | 0.00 | 82 | 1006.9 |
| 20260505210055 | 55 | 355 | 7.0 | 7.0 | 0.00 | 0.00 | 0.00 | 82 | 1007.1 |
| 20260505205552 | 55 | 8 | 7.0 | 13.0 | 0.00 | 0.06 | 0.06 | 84 | 1006.9 |
| 20260505205050 | 55 | 341 | 8.0 | 8.0 | 0.00 | 0.06 | 0.06 | 85 | 1007.1 |
| 20260505204547 | 55 | 347 | 8.0 | 8.0 | 0.00 | 0.06 | 0.06 | 85 | 1007.1 |
| 20260505204044 | 56 | 8 | 9.0 | 10.0 | 0.00 | 0.06 | 0.06 | 86 | 1007.0 |
| 20260505203540 | 56 | 341 | 6.0 | 8.0 | 0.00 | 0.06 | 0.06 | 86 | 1007.1 |
| 20260505203038 | 56 | 325 | 7.0 | 11.0 | 0.00 | 0.06 | 0.06 | 85 | 1006.7 |
| 20260505202534 | 56 | 322 | 6.0 | 7.0 | 0.00 | 0.06 | 0.06 | 86 | 1006.7 |
| 20260505202030 | 56 | 19 | 4.0 | 6.0 | 0.00 | 0.06 | 0.06 | 84 | 1006.1 |
| 20260505201527 | 57 | 39 | 2.0 | 6.0 | 0.00 | 0.06 | 0.06 | 84 | 1005.9 |
| 20260505201024 | 57 | 55 | 1.0 | 3.0 | 0.00 | 0.06 | 0.06 | 84 | 1006.0 |
| 20260505200522 | 57 | 52 | 2.0 | 6.0 | 0.00 | 0.06 | 0.06 | 85 | 1006.0 |
| 20260505200019 | 57 | 37 | 4.0 | 8.0 | 0.00 | 0.06 | 0.06 | 85 | 1005.8 |
| 20260505195515 | 57 | 28 | 8.0 | 13.0 | 0.00 | 0.06 | 0.06 | 85 | 1005.8 |
| 20260505195012 | 57 | 28 | 9.0 | 11.0 | 0.00 | 0.06 | 0.06 | 85 | 1006.1 |
| 20260505194510 | 58 | 13 | 8.0 | 13.0 | 0.00 | 0.06 | 0.06 | 86 | 1006.1 |
| 20260505194010 | 58 | 19 | 10.0 | 13.0 | 0.00 | 0.06 | 0.06 | 91 | 1006.1 |
| 20260505193508 | 58 | 22 | 9.0 | 10.0 | 0.00 | 0.06 | 0.06 | 91 | 1006.6 |
| 20260505193004 | 58 | 22 | 6.0 | 8.0 | 0.00 | 0.06 | 0.06 | 91 | 1006.6 |
| 20260505192503 | 58 | 285 | 7.0 | 9.0 | 0.00 | 0.06 | 0.06 | 94 | 1007.5 |
| 20260505192000 | 57 | 272 | 11.0 | 14.0 | 0.00 | 0.06 | 0.06 | 94 | 1007.7 |
| 20260505191458 | 57 | 323 | 4.0 | 4.0 | 0.00 | 0.06 | 0.06 | 94 | 1006.3 |
| 20260505190955 | 58 | 92 | 0.0 | 2.0 | 0.00 | 0.06 | 0.06 | 93 | 1005.9 |
| 20260505190450 | 58 | 92 | 2.0 | 3.0 | 0.00 | 0.06 | 0.06 | 93 | 1006.0 |
| 20260505185946 | 58 | 127 | 0.0 | 0.0 | 0.00 | 0.06 | 0.06 | 93 | 1006.0 |
| 20260505185444 | 58 | 127 | 0.0 | 0.0 | 0.00 | 0.06 | 0.06 | 93 | 1006.1 |
| 20260505184939 | 58 | 126 | 1.0 | 2.0 | 0.00 | 0.06 | 0.06 | 94 | 1006.2 |
| 20260505184437 | 58 | 155 | 2.0 | 2.0 | 0.00 | 0.06 | 0.06 | 94 | 1006.4 |
| 20260505183933 | 59 | 184 | 1.0 | 2.0 | 0.00 | 0.06 | 0.06 | 93 | 1006.2 |
| 20260505183430 | 59 | 145 | 2.0 | 2.0 | 0.00 | 0.06 | 0.06 | 93 | 1006.4 |
| 20260505182927 | 59 | 145 | 2.0 | 3.0 | 0.00 | 0.06 | 0.06 | 93 | 1006.4 |
| 20260505182424 | 59 | 145 | 1.0 | 2.0 | 0.00 | 0.06 | 0.06 | 93 | 1006.4 |
| 20260505181920 | 58 | 60 | 0.0 | 0.0 | 0.00 | 0.06 | 0.06 | 92 | 1006.7 |
| 20260505181417 | 58 | 60 | 1.0 | 1.0 | 0.00 | 0.06 | 0.06 | 92 | 1006.5 |
| 20260505180914 | 58 | 58 | 0.0 | 1.0 | 0.00 | 0.06 | 0.06 | 91 | 1006.4 |
| 20260505180411 | 59 | 58 | 4.0 | 4.0 | 0.00 | 0.06 | 0.06 | 90 | 1006.1 |
| 20260505175907 | 59 | 59 | 0.0 | 0.0 | 0.00 | 0.06 | 0.06 | 91 | 1006.3 |